VINASAT 2

导读 | 星芒AI

VINASAT 2 是越南自主研发的第二颗通信卫星,于2019年1月发射,取代了2008年发射的 VINASAT 1。该卫星由法国泰雷兹阿莱尼亚宇航公司制造,位于地球静止轨道上,提供广播、宽带互联网和电信服务,覆盖东南亚及邻近地区。VINASAT 2 提升了越南的通信能力,增强了国家在区域通信市场中的竞争力,并支持国家数字化转型和经济发展。

基本信息
目录编号:
38332
目录名称:
VINASAT 2
国际标识:
2012-023B
轨道中心:
EARTH
卫星名称:
VINASAT 2
卫星全名:
--
卫星状态:
在轨 (已飞行4915 天)
发射日期:
2012-05-15 UTC
国别 :
越南 (VN)
星等 :
--
轨道信息
数据来源 国际轨道数据
星历时间: 2025-10-28T16:32:02+0800
23小时前
查看轨道信息
半长轴: 42164.644km
偏心率: 0.0002048
轨道倾角: 0.039°
近地点辐角 149.384°
升交点赤经 62.384°
平近点角 85.075°
近地点: 35777.873km
远地点: 35795.145km
周期: 1436.092分钟
每日圈数: 1.002721
详细信息
使用方式:
暂无
2D轨道图
3D轨道图
轨道高度分析图
轨道倾角分析图
轨道综合分析图
查看轨道综合分析图